Weather in Julfa

Azerbaijan     38°57′11″N   45°37′48″E
temp.,
°C
wind,
m/s
gust,
m/s
humid.,
%
clouds,
%
prec.,
mm/h
press.,
hPa
HPBL,
m
19 april, mon
mon1901:00+19ese113347 0.0 101411
04:00+17ese223979 0.0 101519
07:00+17nnw11455 0.0 101711
10:00+21nw3433100 0.0 1017943
13:00+24nw3626100 0.0 10162154
16:00+25nw262397 0.0 10142098
19:00+25wnw122799 0.0 1013603
22:00+22se1132100 0.0 101411
20 april, tue
tue2001:00+21e1134100 0.0 101411
04:00+20ne1135100 0.0 101411
07:00+20sw0136100 0.0 101311
10:00+24w1126100 0.0 1014529
13:00+27w1320100 0.0 10121105
16:00+25wsw8830100 0.3 10131667
19:00+23e343581 0.5 1011281
22:00+21ne114169 0.6 101212
21 april, wed
wed2101:00+20e11395 0.0 101211
04:00+19ese113756 0.0 101111
07:00+19sse113895 0.0 101211
10:00+25sw122396 0.0 1012625
13:00+30ssw3815100 0.0 10093928
16:00+28nw1521100 0.1 10102064
19:00+21ne1243100 1.2 101371
22:00+19ne1246100 1.4 101318
22 april, thu
thu2201:00+19e1142100 0.0 101312
04:00+18ese1141100 0.0 101212
07:00+18ese1142100 0.0 101413
10:00+24sse13275 0.0 1013744
13:00+29ssw391792 0.0 10104155
16:00+30ssw101114100 0.0 10074200
19:00+27s2320100 0.0 100877
22:00+19ese564952 0.0 1013154
23 april, fri
fri2301:00+17ese23548 0.0 101352
04:00+16ese22560 0.0 101333
07:00+16ese22560 0.0 101444
10:00+19se33470 0.0 1015790
13:00+22se33370 0.0 10131246
16:00+24ese54310 0.0 10111481
19:00+19se574415 0.0 1012435
22:00+15ese58585 0.0 1016396